[[{"header":{"parameterUnit":"m.s-1","parameterCategory":1,"la1":30.2991,"la2":30.254,"lo1":-89.0895,"lo2":-89.0444,"dy":0.0017,"dx":0.0017,"nx":28,"ny":28,"refTime":"2025-03-09T21:00:00:Z","depth":0,"parameterNumber":2,"parameterNumberName":"U-component_of_WINDS"},"data":[0,0,0,0,0,0,0,0,0,0,0,0,0,0,0,0,0,0,0,0,0,0,0,0,0,0,0,0,0,0,0,0,0,0,0,0,0,0,0,0,0,0,0,0,0,0,0,0,0,0,0,0,0,0,0,0,0,0,2.1785,2.1785,0,2.1799,2.1799,2.1799,2.176,2.1759,2.1758,2.1757,2.1771,2.1772,2.1774,0,0,0,0,0,0,0,0,0,0,0,0,0,2.1725,2.1726,2.1785,2.1785,2.1785,2.1799,2.1799,2.1799,2.176,2.1759,2.1758,2.1756,2.177,2.1772,2.1774,0,0,0,0,0,0,0,0,0,0,0,0,0,2.1746,2.1727,2.1785,2.1767,2.1766,2.1799,2.1799,2.1799,2.1761,2.1759,2.1757,2.1755,2.177,2.1772,2.1774,2.1824,0,0,2.1781,2.1782,0,0,0,0,0,0,0,0,2.1745,2.1748,2.177,2.1769,2.1767,2.1776,2.1783,2.1808,2.1761,2.1763,2.1757,2.1755,2.1774,2.1776,2.1782,2.1825,2.1826,2.1781,2.1783,2.1784,2.1784,0,0,0,0,0,0,0,2.1744,2.1748,2.179,2.177,2.1769,2.1759,2.176,2.1788,2.1778,2.1762,2.176,2.1762,2.1773,2.178,2.1782,2.1826,2.1781,2.1783,2.1785,2.1786,2.1912,2.1914,0,0,0,0,0,0,2.1744,2.1747,2.179,2.1791,2.1751,2.1762,2.1763,2.1775,2.1778,2.1777,2.1763,2.176,2.1777,2.178,2.1783,2.1843,2.1784,2.1786,2.1787,2.191,2.1912,2.1915,0,0,0,0,0,0,2.1743,2.1749,2.1789,2.1768,2.1772,2.1765,2.1779,2.1776,2.1784,2.1779,2.1777,2.1773,2.1776,2.178,2.1815,2.1843,2.1787,2.1789,2.1908,2.1911,2.1913,2.1962,0,0,0,0,0,0,2.1742,2.1748,2.1767,2.1769,2.1774,2.1821,2.178,2.1778,2.1788,2.1783,2.1787,2.1786,2.1775,2.1812,2.1817,2.1845,2.1791,2.1905,2.1909,2.1912,2.1958,2.1967,2.1974,0,0,0,0,0,2.174,2.178,2.1768,2.1774,2.1797,2.1823,2.1825,2.1812,2.179,2.1809,2.1806,2.1786,2.1839,2.1815,2.1821,2.185,2.1903,2.1908,2.1912,2.1955,2.1965,2.1974,0,0,0,0,0,0,2.1781,2.178,2.1767,2.1809,2.1816,2.1816,2.1839,2.1823,2.1837,2.1832,2.1815,2.1817,2.1855,2.1856,2.183,2.19,2.1867,2.1873,2.1898,2.1907,2.1915,2.1914,2.1792,0,0,0,0,0,2.1796,2.1816,2.1814,2.1851,2.1856,2.1847,2.1858,2.1847,2.1854,2.1857,2.1856,2.1864,2.1882,2.1895,2.1911,2.1958,2.1959,2.1981,2.1989,2.1995,2.2001,2.2027,2.2037,2.1929,2.1929,2.1929,0,0,2.1825,2.1827,2.1841,2.186,2.1864,2.1886,2.185,2.1875,2.1891,2.186,2.1894,2.1894,2.1901,2.1943,2.1961,2.1945,2.2031,2.2001,2.2006,2.2008,2.2033,2.2043,2.2052,2.1932,2.1932,2.1931,0,0,2.189,2.1893,2.1925,2.193,2.1938,2.1932,2.194,2.1943,2.1942,2.1975,2.1953,2.1972,2.2004,2.2011,2.2018,2.2088,2.207,2.2094,2.2135,2.216,2.2169,2.2176,2.2202,2.2211,2.2099,2.2099,2.2099,0,2.1925,2.1958,2.1943,2.197,2.198,2.1953,2.1986,2.1992,2.2005,2.2012,2.1994,2.2034,2.2037,2.2081,2.2098,2.2104,2.2113,2.2093,2.2169,2.2176,2.2183,2.2207,2.2217,2.2102,2.2102,2.2101,2.2101,0,2.2001,2.2025,2.205,2.2063,2.2075,2.2105,2.2096,2.211,2.2099,2.2095,2.213,2.2133,2.215,2.216,2.2149,2.2202,2.2192,2.2172,2.2139,2.2196,2.2219,2.2228,2.2106,2.2105,2.2104,2.2103,0,0,2.2092,2.2098,2.2108,2.2114,2.2121,2.2139,2.2168,2.2185,2.2199,2.2208,2.2233,2.2261,2.2243,2.2251,2.2241,2.2264,2.232,2.224,2.224,2.2256,2.238,2.2396,2.2407,2.2308,2.231,2.2311,2.238,0,2.2157,2.2207,2.2195,2.2245,2.2266,2.2243,2.2268,2.2275,2.2273,2.2292,2.2289,2.231,2.2284,2.2289,2.231,2.2308,2.2345,2.2303,2.2331,2.2332,2.233,2.2418,2.2435,2.25,2.2388,2.239,2.2391,0,2.2239,2.2253,2.2304,2.2309,2.2318,2.2341,2.2357,2.2375,2.2383,2.238,2.2391,2.2376,2.2406,2.2373,2.2413,2.2386,2.2396,2.2398,2.24,2.2402,2.2365,2.2424,2.252,2.253,2.2405,2.2403,2.2402,0,2.2301,2.2333,2.2368,2.2374,2.238,2.2397,2.2401,2.2407,2.2419,2.2433,2.2441,2.2458,2.2467,2.2481,2.2472,2.2449,2.2515,2.2481,2.2514,2.2514,2.2529,2.2528,2.2629,2.2535,2.2535,2.2535,2.2534,0,2.2375,2.2408,2.2396,2.2418,2.2454,2.2441,2.2478,2.2478,2.2485,2.2507,2.2487,2.2508,2.2495,2.2515,2.2508,2.2543,2.2548,2.2546,2.2544,2.2549,2.2549,2.2556,2.2551,2.2537,2.2537,2.2536,2.2536,0,2.245,2.2444,2.2481,2.2484,2.2486,2.2513,2.2516,2.2537,2.2533,2.2562,2.2568,2.2563,2.2586,2.2578,2.2602,2.2598,2.2643,2.2635,2.2641,2.2639,2.2672,2.267,2.2781,2.2796,2.2692,2.2693,2.2694,0,2.2498,2.2523,2.2529,2.2543,2.2548,2.257,2.2582,2.257,2.2584,2.2596,2.2616,2.2637,2.2653,2.2691,2.269,2.2709,2.2701,2.2739,2.2704,2.2708,2.2703,2.2702,2.2705,2.2746,2.2747,2.2748,2.2749,0,2.2584,2.258,2.2598,2.2616,2.2631,2.2644,2.2656,2.2668,2.2657,2.2674,2.2697,2.271,2.2736,2.2757,2.2775,2.2779,2.2763,2.276,2.2769,2.2774,2.2776,2.2776,2.266,2.2758,2.2757,2.2756,2.2756,2.2755,2.2647,2.2669,2.2677,2.2699,2.2706,2.2718,2.2738,2.2738,2.2757,2.2777,2.2769,2.2797,2.2806,2.2827,2.2834,2.2855,2.2841,2.2853,2.2856,2.286,2.2865,2.2773,2.2858,2.2858,2.2858,2.2858,2.2857,0,2.2733,2.2737,2.2757,2.2774,2.2792,2.2775,2.2788,2.2803,2.2828,2.2837,2.2854,2.2882,2.2903,2.2904,2.2925,2.2942,2.2935,2.2947,2.2946,2.2948,2.2876,2.2867,2.2953,2.2953,2.2953,2.2953,2.2953,2.2953,2.2779,2.2815,2.2812,2.2852,2.2857,2.2883,2.2892,2.2903,2.2911,2.2943,2.2961,2.2961,2.2968,2.2989,2.3008,2.3008,2.3016,2.3032,2.3029,2.2962,2.2953,2.2944,2.2935,2.3034,2.3034,2.3099,2.31,2.31]},{"header":{"parameterUnit":"m.s-1","parameterCategory":1,"la1":30.2991,"la2":30.254,"lo1":-89.0895,"lo2":-89.0444,"dy":0.0017,"dx":0.0017,"nx":28,"ny":28,"refTime":"2025-03-09T21:00:00:Z","depth":0,"parameterNumber":3,"parameterNumberName":"V-component_of_WINDS"},"data":[0,0,0,0,0,0,0,0,0,0,0,0,0,0,0,0,0,0,0,0,0,0,0,0,0,0,0,0,0,0,0,0,0,0,0,0,0,0,0,0,0,0,0,0,0,0,0,0,0,0,0,0,0,0,0,0,0,0,-1.5737,-1.5738,0,-1.5808,-1.5809,-1.581,-1.5821,-1.582,-1.582,-1.5819,-1.5893,-1.5896,-1.5898,0,0,0,0,0,0,0,0,0,0,0,0,0,-1.5614,-1.5616,-1.5737,-1.5738,-1.5739,-1.5808,-1.5809,-1.581,-1.5821,-1.582,-1.5819,-1.5819,-1.5892,-1.5895,-1.5898,0,0,0,0,0,0,0,0,0,0,0,0,0,-1.5675,-1.5617,-1.5737,-1.5753,-1.5755,-1.5808,-1.5809,-1.581,-1.5821,-1.582,-1.5819,-1.5818,-1.5891,-1.5895,-1.5899,-1.5942,0,0,-1.5911,-1.5912,0,0,0,0,0,0,0,0,-1.5671,-1.5679,-1.5749,-1.5752,-1.5754,-1.5805,-1.5793,-1.5854,-1.5821,-1.5796,-1.5819,-1.5818,-1.5865,-1.5871,-1.5886,-1.5945,-1.5948,-1.5911,-1.5913,-1.5915,-1.5916,0,0,0,0,0,0,0,-1.5667,-1.5676,-1.5765,-1.5751,-1.5753,-1.5757,-1.5765,-1.5804,-1.5835,-1.5798,-1.5799,-1.5807,-1.5866,-1.5882,-1.5888,-1.5949,-1.5911,-1.5914,-1.5917,-1.5918,-1.6049,-1.605,0,0,0,0,0,0,-1.566,-1.5673,-1.5763,-1.5767,-1.5709,-1.576,-1.5769,-1.5789,-1.5834,-1.584,-1.5808,-1.5808,-1.5876,-1.5883,-1.589,-1.5944,-1.5915,-1.5919,-1.5921,-1.6048,-1.6049,-1.605,0,0,0,0,0,0,-1.5657,-1.5668,-1.576,-1.572,-1.5732,-1.5763,-1.5787,-1.5791,-1.5808,-1.5842,-1.5847,-1.5819,-1.5876,-1.5885,-1.5929,-1.5947,-1.592,-1.5924,-1.6046,-1.6048,-1.605,-1.6052,0,0,0,0,0,0,-1.5653,-1.5666,-1.5682,-1.5721,-1.5734,-1.5797,-1.5788,-1.5793,-1.5814,-1.5814,-1.5854,-1.5859,-1.5876,-1.5923,-1.5933,-1.5952,-1.5927,-1.6045,-1.6047,-1.6049,-1.605,-1.6053,-1.6056,0,0,0,0,0,-1.5649,-1.568,-1.5683,-1.5694,-1.5755,-1.5798,-1.5806,-1.5823,-1.5816,-1.5832,-1.5854,-1.5858,-1.5944,-1.5928,-1.5939,-1.5959,-1.6044,-1.6046,-1.6049,-1.6049,-1.6053,-1.6056,0,0,0,0,0,0,-1.5643,-1.5685,-1.5689,-1.5733,-1.5762,-1.5799,-1.5821,-1.5826,-1.5858,-1.5857,-1.5878,-1.5887,-1.593,-1.5949,-1.593,-1.6004,-1.5993,-1.5998,-1.5989,-1.5993,-1.5996,-1.5991,-1.593,0,0,0,0,0,-1.5647,-1.5678,-1.5713,-1.5749,-1.5763,-1.5789,-1.5809,-1.582,-1.5851,-1.5863,-1.5888,-1.5918,-1.5952,-1.5974,-1.6007,-1.6053,-1.6063,-1.6073,-1.6076,-1.6078,-1.6082,-1.6109,-1.6115,-1.6059,-1.6059,-1.6059,0,0,-1.5655,-1.5682,-1.57,-1.5748,-1.5772,-1.5804,-1.5799,-1.5833,-1.5858,-1.5868,-1.5911,-1.5931,-1.5966,-1.6012,-1.6033,-1.6029,-1.61,-1.6081,-1.6083,-1.6086,-1.6113,-1.6118,-1.6122,-1.6061,-1.606,-1.606,0,0,-1.5687,-1.571,-1.5743,-1.5767,-1.5802,-1.582,-1.5828,-1.5865,-1.5878,-1.5922,-1.5931,-1.5961,-1.6018,-1.6043,-1.6063,-1.6106,-1.6112,-1.6117,-1.6132,-1.6158,-1.6163,-1.6167,-1.6183,-1.6188,-1.6121,-1.6121,-1.6121,0,-1.5693,-1.5741,-1.5759,-1.5793,-1.5815,-1.5825,-1.586,-1.5882,-1.5927,-1.5942,-1.5936,-1.6009,-1.6034,-1.6086,-1.6097,-1.6113,-1.6123,-1.6112,-1.616,-1.6165,-1.6169,-1.6184,-1.619,-1.6121,-1.6121,-1.6121,-1.6121,0,-1.5747,-1.5781,-1.5803,-1.5846,-1.587,-1.5904,-1.5928,-1.595,-1.596,-1.5979,-1.6024,-1.6054,-1.6093,-1.6107,-1.6116,-1.6161,-1.6157,-1.6156,-1.6146,-1.6174,-1.6189,-1.6195,-1.6122,-1.6121,-1.6121,-1.6121,0,0,-1.5776,-1.5829,-1.5837,-1.5857,-1.5898,-1.5925,-1.596,-1.5998,-1.6018,-1.6049,-1.6079,-1.6129,-1.6128,-1.6151,-1.6164,-1.6187,-1.6221,-1.6183,-1.6184,-1.6189,-1.6273,-1.6274,-1.628,-1.6224,-1.6226,-1.6226,-1.627,0,-1.5813,-1.5875,-1.5893,-1.5945,-1.5977,-1.5989,-1.602,-1.6049,-1.6068,-1.6098,-1.6119,-1.6154,-1.615,-1.6164,-1.6188,-1.6211,-1.6238,-1.6208,-1.6254,-1.6255,-1.6245,-1.6288,-1.6289,-1.6329,-1.6276,-1.6277,-1.6278,0,-1.5864,-1.5896,-1.5951,-1.5989,-1.6003,-1.603,-1.6068,-1.6097,-1.6131,-1.6143,-1.6169,-1.618,-1.6219,-1.6207,-1.6261,-1.6241,-1.6261,-1.6275,-1.6277,-1.6282,-1.6268,-1.6295,-1.6342,-1.6348,-1.6287,-1.6286,-1.6286,0,-1.588,-1.5937,-1.5978,-1.5995,-1.604,-1.6059,-1.6079,-1.6111,-1.6134,-1.6167,-1.6182,-1.622,-1.624,-1.627,-1.6291,-1.628,-1.6344,-1.6333,-1.6356,-1.6355,-1.6368,-1.6367,-1.6419,-1.6381,-1.6381,-1.6381,-1.638,0,-1.5919,-1.5953,-1.5986,-1.6011,-1.605,-1.6071,-1.6109,-1.613,-1.6159,-1.6189,-1.6202,-1.6231,-1.6257,-1.629,-1.6307,-1.635,-1.6359,-1.637,-1.6375,-1.6369,-1.6368,-1.6383,-1.638,-1.6382,-1.6382,-1.6382,-1.6381,0,-1.5944,-1.5967,-1.6012,-1.6052,-1.6062,-1.6089,-1.6123,-1.6149,-1.6169,-1.6207,-1.6218,-1.6249,-1.6288,-1.6312,-1.6362,-1.6374,-1.6421,-1.6424,-1.6409,-1.6411,-1.6432,-1.643,-1.6496,-1.6506,-1.646,-1.6461,-1.6461,0,-1.5967,-1.5993,-1.6035,-1.6056,-1.6076,-1.611,-1.6133,-1.6156,-1.618,-1.6221,-1.6242,-1.6282,-1.6315,-1.6377,-1.6404,-1.6443,-1.6447,-1.6468,-1.6453,-1.6447,-1.6448,-1.6447,-1.645,-1.647,-1.647,-1.6471,-1.6471,0,-1.6006,-1.6017,-1.6049,-1.6086,-1.6114,-1.6144,-1.6174,-1.6191,-1.6219,-1.6246,-1.6286,-1.6311,-1.6362,-1.6402,-1.6443,-1.6465,-1.6473,-1.6475,-1.6483,-1.6478,-1.6468,-1.6474,-1.6416,-1.6474,-1.6473,-1.6473,-1.6473,-1.6473,-1.6031,-1.6056,-1.6089,-1.6126,-1.6151,-1.618,-1.6206,-1.6229,-1.6263,-1.6305,-1.6317,-1.6359,-1.6394,-1.645,-1.6473,-1.6507,-1.6504,-1.6515,-1.6517,-1.652,-1.652,-1.6463,-1.6514,-1.6514,-1.6514,-1.6514,-1.6514,0,-1.6072,-1.6094,-1.6128,-1.617,-1.6199,-1.6204,-1.6238,-1.6262,-1.6299,-1.6331,-1.6363,-1.641,-1.6449,-1.648,-1.6521,-1.6542,-1.6547,-1.6552,-1.6551,-1.6556,-1.652,-1.651,-1.6547,-1.6547,-1.6547,-1.6547,-1.6547,-1.6547,-1.6096,-1.6138,-1.6153,-1.6208,-1.6231,-1.6271,-1.6291,-1.6318,-1.6343,-1.6395,-1.6427,-1.6447,-1.6479,-1.6523,-1.6559,-1.6567,-1.6582,-1.6586,-1.6596,-1.6562,-1.6558,-1.6555,-1.6545,-1.6589,-1.6589,-1.6629,-1.6629,-1.6629]}]]